EN

Hourly Weather Owidz

Today, 2 March, Tuesday

Time Temperature Precipitation Wind Pressure Humidity
00:00 +1°C° 0 mm 4 mps 766 mmHg 88%
01:00 0°C° 0 mm 4 mps 766 mmHg 90%
02:00 0°C° 0 mm 4 mps 765 mmHg 90%
03:00 0°C° 0 mm 4 mps 765 mmHg 89%
04:00 0°C° 0 mm 4 mps 765 mmHg 89%
05:00 0°C° 0 mm 4 mps 765 mmHg 89%
06:00 0°C° 0 mm 4 mps 765 mmHg 89%
07:00 0°C° 0 mm 4 mps 765 mmHg 90%
08:00 +1°C° 0 mm 4 mps 765 mmHg 83%
09:00 +3°C° 0 mm 4 mps 765 mmHg 77%
10:00 +5°C° 0 mm 4 mps 765 mmHg 71%
11:00 +6°C° 0 mm 4 mps 765 mmHg 68%
12:00 +7°C° 0 mm 4 mps 765 mmHg 65%
13:00 +8°C° 0 mm 4 mps 766 mmHg 62%
14:00 +7°C° 0 mm 4 mps 765 mmHg 63%
15:00 +8°C° 0 mm 3 mps 765 mmHg 65%
16:00 +8°C° 0 mm 3 mps 765 mmHg 67%
17:00 +6°C° 0 mm 2 mps 765 mmHg 74%
18:00 +5°C° 0 mm 2 mps 765 mmHg 81%
19:00 +3°C° 0 mm 2 mps 766 mmHg 88%
20:00 +4°C° 0 mm 1 mps 766 mmHg 89%
21:00 +3°C° 0 mm 1 mps 766 mmHg 91%
22:00 +2°C° 0 mm 0 mps 766 mmHg 92%
23:00 +2°C° 0 mm 0 mps 766 mmHg 92%

Tomorrow, 3 March, Wednesday

Time Temperature Precipitation Wind Pressure Humidity
00:00 +2°C° 0 mm 1 mps 766 mmHg 92%
01:00 +2°C° 0 mm 1 mps 766 mmHg 92%
02:00 +2°C° 0 mm 1 mps 766 mmHg 92%
03:00 +2°C° 0 mm 1 mps 765 mmHg 93%
04:00 +2°C° 0 mm 1 mps 764 mmHg 93%
05:00 +1°C° 0 mm 2 mps 764 mmHg 93%
06:00 -1°C° 0 mm 2 mps 764 mmHg 93%
07:00 -1°C° 0 mm 2 mps 764 mmHg 92%
08:00 +2°C° 0 mm 2 mps 764 mmHg 84%
09:00 +4°C° 0 mm 2 mps 763 mmHg 75%
10:00 +5°C° 0 mm 2 mps 763 mmHg 66%
11:00 +6°C° 0 mm 2 mps 763 mmHg 61%
12:00 +8°C° 0 mm 3 mps 762 mmHg 55%
13:00 +9°C° 0 mm 3 mps 762 mmHg 50%
14:00 +9°C° 0 mm 3 mps 761 mmHg 52%
15:00 +9°C° 0 mm 3 mps 760 mmHg 54%
16:00 +9°C° 0 mm 3 mps 759 mmHg 56%
17:00 +7°C° 0 mm 3 mps 758 mmHg 64%
18:00 +5°C° 0 mm 3 mps 758 mmHg 72%
19:00 +4°C° 0 mm 3 mps 757 mmHg 80%
20:00 +4°C° 0 mm 3 mps 756 mmHg 82%
21:00 +3°C° 0 mm 4 mps 756 mmHg 85%
22:00 +3°C° 0 mm 4 mps 755 mmHg 88%
23:00 +3°C° 0 mm 4 mps 754 mmHg 89%

Day after tomorrow, 4 March, Thursday

Time Temperature Precipitation Wind Pressure Humidity
00:00 +3°C° 0 mm 4 mps 754 mmHg 90%
01:00 +3°C° 0 mm 4 mps 753 mmHg 91%
02:00 +3°C° 0 mm 4 mps 753 mmHg 92%
03:00 +3°C° 0 mm 4 mps 752 mmHg 92%
04:00 +1°C° 0 mm 4 mps 751 mmHg 93%
05:00 +3°C° 0 mm 4 mps 751 mmHg 91%
06:00 +3°C° 0 mm 4 mps 751 mmHg 89%
07:00 +3°C° 0 mm 4 mps 751 mmHg 88%
08:00 +3°C° 0 mm 4 mps 751 mmHg 85%
09:00 +3°C° 0 mm 4 mps 751 mmHg 83%
10:00 +1°C° 0 mm 4 mps 751 mmHg 81%
11:00 +1°C° 0.1 mm 4 mps 751 mmHg 83%
12:00 +1°C° 0.1 mm 4 mps 751 mmHg 84%
13:00 +1°C° 0.1 mm 4 mps 752 mmHg 86%
14:00 0°C° 0.1 mm 4 mps 752 mmHg 87%
15:00 -1°C° 0.1 mm 5 mps 752 mmHg 88%
16:00 -1°C° 0.1 mm 5 mps 752 mmHg 89%
17:00 -2°C° 0 mm 4 mps 752 mmHg 85%
18:00 -2°C° 0 mm 4 mps 752 mmHg 81%
19:00 -1°C° 0 mm 3 mps 753 mmHg 77%
20:00 -2°C° 0 mm 3 mps 753 mmHg 77%
21:00 -2°C° 0 mm 3 mps 753 mmHg 78%
22:00 -2°C° 0 mm 3 mps 754 mmHg 78%
23:00 -2°C° 0 mm 3 mps 754 mmHg 78%

5 March, Friday

Time Temperature Precipitation Wind Pressure Humidity
00:00 -2°C° 0 mm 3 mps 754 mmHg 78%
01:00 -2°C° 0 mm 3 mps 754 mmHg 78%
02:00 -2°C° 0 mm 3 mps 754 mmHg 76%
03:00 -2°C° 0 mm 2 mps 754 mmHg 75%
04:00 -2°C° 0 mm 2 mps 754 mmHg 73%
05:00 -2°C° 0 mm 2 mps 754 mmHg 72%
06:00 -2°C° 0 mm 2 mps 755 mmHg 70%
07:00 -2°C° 0 mm 2 mps 755 mmHg 69%
08:00 -1°C° 0 mm 2 mps 755 mmHg 62%
09:00 0°C° 0 mm 3 mps 755 mmHg 56%
10:00 +1°C° 0 mm 3 mps 756 mmHg 49%
11:00 +1°C° 0.2 mm 4 mps 756 mmHg 47%
12:00 +1°C° 0.2 mm 4 mps 756 mmHg 44%
13:00 +3°C° 0.2 mm 4 mps 756 mmHg 42%
14:00 +1°C° 0.1 mm 4 mps 756 mmHg 46%
15:00 0°C° 0.1 mm 5 mps 756 mmHg 51%
16:00 0°C° 0.1 mm 5 mps 757 mmHg 55%
17:00 -1°C° 0 mm 5 mps 757 mmHg 60%
18:00 -2°C° 0 mm 4 mps 758 mmHg 66%
19:00 -3°C° 0 mm 4 mps 758 mmHg 71%
20:00 -3°C° 0 mm 4 mps 759 mmHg 69%
21:00 -3°C° 0 mm 4 mps 759 mmHg 66%
22:00 -4°C° 0 mm 3 mps 760 mmHg 64%
23:00 -4°C° 0 mm 3 mps 760 mmHg 63%

6 March, Saturday

Time Temperature Precipitation Wind Pressure Humidity
00:00 -4°C° 0 mm 3 mps 761 mmHg 62%
01:00 -4°C° 0 mm 3 mps 761 mmHg 61%
02:00 -4°C° 0 mm 3 mps 761 mmHg 60%
03:00 -4°C° 0 mm 3 mps 761 mmHg 60%
04:00 -4°C° 0 mm 3 mps 762 mmHg 60%
05:00 -4°C° 0 mm 3 mps 762 mmHg 60%
06:00 -3°C° 0 mm 2 mps 762 mmHg 59%
07:00 -3°C° 0 mm 2 mps 762 mmHg 59%
08:00 -2°C° 0 mm 2 mps 762 mmHg 55%
09:00 -1°C° 0 mm 3 mps 762 mmHg 50%
10:00 +1°C° 0 mm 3 mps 762 mmHg 45%
11:00 0°C° 0 mm 4 mps 762 mmHg 43%
12:00 +1°C° 0 mm 5 mps 762 mmHg 41%
13:00 +2°C° 0 mm 5 mps 761 mmHg 38%
14:00 +1°C° 0 mm 5 mps 761 mmHg 42%
15:00 +1°C° 0 mm 5 mps 760 mmHg 45%
16:00 +1°C° 0 mm 6 mps 760 mmHg 49%
17:00 -1°C° 0 mm 6 mps 759 mmHg 60%
18:00 -2°C° 0 mm 6 mps 759 mmHg 72%
19:00 -3°C° 0 mm 6 mps 758 mmHg 84%
20:00 -2°C° 0 mm 6 mps 758 mmHg 85%
21:00 -2°C° 0 mm 6 mps 758 mmHg 87%
22:00 -1°C° 0 mm 6 mps 757 mmHg 88%
23:00 -1°C° 0 mm 7 mps 757 mmHg 87%

7 March, Sunday

Time Temperature Precipitation Wind Pressure Humidity
00:00 -1°C° 0 mm 7 mps 756 mmHg 87%
01:00 -2°C° 0 mm 7 mps 756 mmHg 86%
02:00 -2°C° 0 mm 7 mps 755 mmHg 88%
03:00 -2°C° 0 mm 7 mps 755 mmHg 90%
04:00 -2°C° 0 mm 8 mps 754 mmHg 92%
05:00 -2°C° 0 mm 8 mps 754 mmHg 92%
06:00 -2°C° 0 mm 8 mps 753 mmHg 91%
07:00 -2°C° 0 mm 8 mps 753 mmHg 91%
08:00 -1°C° 0 mm 8 mps 752 mmHg 89%
09:00 -1°C° 0 mm 8 mps 752 mmHg 88%
10:00 -1°C° 0 mm 8 mps 752 mmHg 87%
11:00 -1°C° 0.1 mm 8 mps 751 mmHg 89%
12:00 -1°C° 0.1 mm 8 mps 751 mmHg 91%
13:00 -1°C° 0.1 mm 8 mps 751 mmHg 93%
14:00 -1°C° 0.3 mm 8 mps 750 mmHg 93%
15:00 -1°C° 0.3 mm 8 mps 750 mmHg 94%
16:00 -1°C° 0.3 mm 8 mps 750 mmHg 94%
17:00 -2°C° 0.7 mm 8 mps 750 mmHg 94%
18:00 -3°C° 0.7 mm 7 mps 750 mmHg 93%
19:00 -6°C° 0.7 mm 7 mps 750 mmHg 93%
20:00 -5°C° 0.3 mm 6 mps 751 mmHg 91%
21:00 -4°C° 0.3 mm 4 mps 751 mmHg 88%
22:00 -4°C° 0.3 mm 3 mps 752 mmHg 86%
23:00 -4°C° 0.2 mm 4 mps 753 mmHg 86%
Show more

We Need Your Consent

Meteoprog and our Service Providers may store and access personal data such as cookies, device identifiers or other similar technologies on your device and process such data to personalise content and ads, as well as provide social media features and to analyse the traffic.

  • Store and/or access information on your device

    Cookies, device identifiers or other information can be stored or accessed on your device for the purposes indicated above.

  • Personalised ads and content, ad and content measurement, audience insights, and products development

    Ads and content can be personalised based on a profile. More data can be added to better personalise ads and content. Ad and content performance can be measured. Insights about the audience who saw the ads and content can be derived. Such data can be used to develop or improve user’s experience, systems and software.

By clicking ‘I Agree’ you will allow the use of indicated cookies, device identifiers, web beacons or other similar technologies. Your settings can be changed in the browser on your device.

For certain purposes, legitimate interests may be relied on, rather than consent. You can read more about this in our Privacy and Cookie Policy.